EHI
0 0 0 0 0 0 0 0 0 0 0 0 0 0 0 1 2 2 1 0 0 1 2 4 5 4 4 5 6 7 8 8 7 7 7 8 7 6 4 2 1 1 1 1
0 0 0 0 0 0 0 0 0 0 0 0 0 0 0 1 2 1 0 0 0 0 1 2 4 6 6 6 7 8 8 9 9 9 9 9 8 7 5 4 3 3 2 2
0 0 0 0 0 0 0 0 0 0 0 0 0 0 0 1 1 1 0 0 0 0 0 0 3 6 8 8 8 9 9 10 11 12 11 10 8 7 6 5 5 4 3 3
0 0 0 0 0 0 0 0 0 0 0 0 0 0 0 0 0 0 0 1 1 1 1 1 2 5 8 10 10 9 9 10 12 13 12 10 8 7 6 6 6 5 3 2
0 0 0 0 0 0 0 0 0 0 0 0 0 0 0 0 0 0 1 2 2 2 2 2 3 4 7 9 10 9 9 10 11 11 11 9 6 6 6 6 5 4 2 1
0 0 0 0 0 0 0 0 0 0 0 0 0 0 0 0 0 0 1 1 2 2 2 2 3 4 6 8 8 8 8 8 8 8 7 6 5 4 4 4 4 2 1 0
0 0 0 0 0 0 0 0 0 0 0 0 0 0 0 0 0 0 0 0 1 1 1 1 2 3 4 5 5 5 5 5 5 4 4 4 3 3 3 3 2 1 0 0
0 0 0 0 0 0 0 0 0 0 0 0 0 0 0 0 0 0 0 0 0 0 1 2 2 3 4 4 3 3 3 3 3 2 2 2 2 2 2 1 1 0 0 0
0 0 0 0 0 0 0 0 0 0 0 0 0 0 0 0 0 0 0 0 0 0 1 2 2 2 3 3 2 1 1 1 1 1 1 1 1 1 1 0 0 0 0 0
0 0 0 0 0 0 0 0 0 0 0 0 0 0 0 0 0 0 0 0 0 0 0 1 1 1 1 1 1 0 0 0 0 0 0 0 0 0 0 0 0 0 0 0
0 0 0 0 0 0 0 0 0 0 0 0 0 0 0 0 0 0 0 0 0 0 0 0 0 0 0 0 0 0 0 0 0 0 0 0 0 0 0 0 0 0 0 0
0 0 0 0 0 0 0 0 0 0 0 0 0 0 0 0 0 0 0 0 0 0 0 0 0 0 0 0 0 0 0 0 0 0 0 0 0 0 0 0 0 0 0 0
0 0 0 0 0 0 0 0 0 0 0 0 0 0 0 0 0 0 0 0 0 0 0 0 0 0 0 0 0 0 0 0 0 0 0 0 0 0 0 0 0 0 0 0
0 0 0 0 0 0 0 0 0 0 0 0 0 0 0 0 0 0 0 0 0 0 0 0 0 0 0 0 0 0 0 0 0 0 0 0 0 0 0 0 0 0 0 0
0 0 0 0 0 0 0 0 0 0 0 0 0 0 0 0 0 0 0 0 0 0 0 0 0 0 0 0 0 0 0 0 1 1 1 1 0 0 0 0 0 0 0 0
0 0 0 0 0 0 0 0 0 0 0 0 0 0 0 0 0 0 0 0 0 0 0 0 0 0 0 0 0 0 0 0 1 2 2 1 0 0 0 0 0 0 0 0
0 0 0 0 0 0 0 0 0 0 0 0 0 0 0 0 0 0 0 0 0 0 0 0 0 0 0 0 0 0 0 0 1 1 1 0 0 0 0 0 0 0 0 0
0 0 0 0 0 0 0 0 0 0 0 0 0 0 0 0 0 0 0 0 0 0 0 0 0 0 0 0 0 0 0 0 0 0 0 0 0 0 0 0 0 0 0 0
0 0 0 0 0 0 0 0 0 0 0 0 0 0 0 0 0 0 0 0 0 0 0 0 0 0 0 0 0 0 0 0 0 0 0 0 0 0 0 0 0 0 0 0
0 0 0 0 0 0 0 0 0 0 0 0 0 0 0 0 0 0 0 0 0 0 0 0 0 0 0 0 0 0 0 0 0 0 0 0 0 0 0 0 0 0 0 0
0 0 0 0 0 0 0 0 0 0 0 0 0 0 0 0 0 0 0 0 0 0 0 0 0 0 0 0 0 0 0 0 0 0 0 0 0 0 0 0 0 0 0 0
0 0 0 0 0 0 0 0 0 0 0 0 0 0 0 0 0 0 0 0 0 0 0 0 0 0 0 0 0 0 0 0 0 0 0 0 0 0 0 0 0 0 0 0
0 0 0 0 0 0 0 0 0 0 0 0 0 0 0 0 0 0 0 0 0 0 0 0 0 0 0 0 0 0 0 0 0 0 0 0 0 0 0 0 0 0 0 0
0 0 0 0 0 0 0 0 0 0 0 0 0 0 0 0 0 0 0 0 0 0 0 0 0 0 0 0 0 0 0 0 0 0 0 0 0 0 0 0 0 0 0 0
0 0 0 0 0 0 0 0 0 0 0 0 0 0 0 0 0 0 0 0 0 0 0 0 0 0 0 0 0 0 0 0 0 0 0 0 0 0 0 0 0 0 0 0
0 0 0 0 0 0 0 0 0 0 0 0 0 0 0 0 0 0 0 0 0 0 0 0 0 0 0 0 0 0 0 0 0 0 0 0 0 0 0 0 0 0 0 0
0 0 0 0 0 0 0 0 0 0 0 0 0 0 0 0 0 0 0 0 0 0 0 0 0 0 0 0 0 0 0 0 0 0 0 0 0 0 0 0 0 0 0 0
Wind_Speed
9 9 8 9 8 8 10 10 10 9 7 6 3 2 2 3 4 3 2 3 3 3 3 3 3 3 3 3 4 4 4 3 3 3 3 2 2 2 2 2 3 3 3 2
9 9 9 11 10 10 10 11 12 11 8 3 2 2 2 3 3 3 3 2 2 2 3 3 3 3 2 3 3 4 4 4 3 3 3 3 3 3 3 2 2 2 2 2
8 8 9 11 8 8 8 9 9 8 5 2 1 1 1 1 2 2 3 2 1 1 1 2 2 3 2 2 2 4 4 4 3 3 3 3 3 2 3 3 3 2 2 2
7 8 11 4 2 3 5 6 5 4 2 1 0 0 0 1 1 2 2 2 2 1 0 0 1 2 2 2 2 3 3 3 3 3 3 2 2 2 2 2 2 2 3 2
5 8 9 5 3 2 3 5 3 2 0 1 2 0 0 2 2 2 2 2 2 1 1 0 0 1 2 2 2 2 3 3 3 3 3 2 2 2 2 2 2 2 2 2
6 7 7 2 1 1 3 4 1 1 1 1 1 1 1 2 3 3 3 2 2 1 1 1 0 1 1 2 2 2 2 1 2 2 3 2 2 2 1 1 2 2 1 1
9 9 6 1 1 1 2 1 4 2 1 0 1 1 2 4 4 3 2 2 2 1 1 0 0 0 1 2 2 2 1 1 1 2 2 2 2 1 1 1 1 1 1 1
6 8 4 2 1 1 2 4 4 4 3 3 3 4 4 3 2 2 2 2 1 1 1 1 0 1 1 1 1 1 1 1 1 1 2 2 2 1 1 2 2 2 2 1
3 3 2 3 3 4 4 4 4 3 3 3 2 2 2 2 1 1 1 0 0 0 0 0 0 1 1 1 1 2 1 1 1 1 1 1 2 2 2 1 1 2 1 1
5 3 3 3 4 4 4 5 4 3 3 2 1 1 1 1 1 1 0 0 0 0 0 0 0 1 0 1 2 2 2 2 2 2 2 1 0 1 1 1 1 2 1 2
7 4 2 2 3 4 4 4 4 3 3 2 2 1 1 1 0 0 0 0 0 0 0 1 0 0 0 1 1 2 2 2 1 1 1 1 1 1 1 1 2 2 2 1
5 4 4 3 2 3 3 3 3 3 3 2 2 2 1 0 0 0 0 0 0 1 1 0 0 0 0 1 1 1 1 1 1 1 1 1 1 1 2 1 2 2 2 2
5 4 4 4 4 4 3 3 4 3 2 2 2 2 1 0 0 0 0 1 1 1 1 1 1 0 0 1 1 1 1 2 1 1 1 1 1 2 1 1 0 0 1 1
5 4 5 4 4 4 3 3 4 3 3 2 1 1 1 0 0 0 1 1 1 1 1 1 1 1 1 1 1 1 1 2 1 1 1 1 1 1 1 2 1 0 1 2
5 5 5 5 4 4 3 3 3 3 2 2 2 1 1 1 1 1 1 0 1 1 1 1 0 0 1 1 1 1 1 1 2 1 1 1 1 1 1 1 2 2 1 1
5 5 4 4 4 4 4 4 4 4 3 2 2 1 1 1 1 1 0 1 1 1 1 1 1 1 1 1 1 1 1 2 1 1 1 1 1 1 1 1 1 2 2 1
5 5 4 4 5 4 4 4 4 3 3 2 2 1 1 1 0 1 1 1 1 1 0 1 1 1 1 1 1 1 1 2 2 1 1 1 1 1 1 1 1 1 1 1
4 4 4 4 4 4 4 3 3 3 3 2 1 1 2 2 2 1 1 1 1 0 0 1 2 1 1 1 1 1 1 2 2 2 1 1 1 1 1 2 2 2 1 1
3 4 4 4 3 2 2 3 3 2 1 1 1 1 1 1 1 1 1 1 1 1 1 2 2 1 1 1 1 1 2 2 2 2 2 2 2 2 2 2 2 2 1 1
4 3 4 3 3 2 2 2 1 1 1 1 1 1 1 0 0 0 1 1 1 1 1 2 2 1 1 1 2 1 2 2 2 2 2 2 2 2 2 2 2 2 2 1
4 3 3 2 2 2 2 1 1 1 0 0 1 1 0 0 1 1 0 1 1 2 2 3 2 1 1 2 2 1 2 2 2 2 2 2 2 2 2 2 2 2 2 2
3 2 2 2 2 2 1 1 1 0 0 1 1 0 0 0 1 1 0 1 1 2 2 2 2 2 3 2 1 1 1 2 2 2 2 2 2 2 2 2 2 2 2 2
2 2 2 1 2 1 1 1 1 0 1 0 0 0 0 0 1 1 1 1 1 2 2 2 3 4 4 2 1 1 2 2 2 2 2 2 2 2 2 2 2 2 2 2
2 2 2 1 1 1 1 1 1 1 1 0 0 0 1 0 0 1 1 2 3 4 2 3 5 4 3 1 1 1 1 2 2 2 2 1 1 2 2 2 2 1 1 2
2 2 2 1 1 1 1 0 1 1 1 1 1 1 0 0 1 1 1 2 3 3 2 3 4 4 2 1 1 1 1 2 2 2 1 1 1 2 2 2 1 1 1 1
2 1 1 1 1 0 0 0 1 1 0 0 0 0 0 1 1 1 2 2 3 3 2 2 2 2 2 2 2 1 2 2 2 2 2 2 1 1 1 1 1 1 1 1
2 1 1 1 0 0 0 0 0 1 1 1 0 0 0 0 1 1 2 2 2 2 2 2 2 2 2 2 2 1 1 1 2 2 2 1 1 1 1 1 1 1 0 1
Wind_Direction
273 272 269 270 260 258 254 255 261 268 267 254 231 195 172 151 133 142 161 149 151 160 159 160 163 170 168 165 164 163 160 169 184 188 186 186 190 197 194 190 200 198 198 202
273 267 274 269 257 256 257 257 259 268 273 266 244 211 182 158 142 155 164 141 136 153 159 172 176 173 166 166 170 165 167 181 184 186 183 186 190 202 199 195 206 196 204 206
273 271 272 261 248 246 259 257 257 260 263 232 229 226 196 157 156 165 140 133 141 151 162 182 184 165 166 176 182 176 175 179 181 185 189 192 199 194 199 202 207 208 213 209
268 269 257 259 253 256 264 267 272 266 252 209 189 87 73 127 140 122 126 127 107 80 55 153 161 159 165 170 183 186 178 175 181 189 193 192 181 183 202 210 205 209 216 214
256 260 265 255 254 276 288 285 293 280 205 83 84 53 116 75 66 82 90 94 93 72 41 39 97 165 166 179 193 197 192 188 186 183 181 181 179 196 209 212 210 200 190 191
249 258 262 250 321 314 286 277 7 35 105 101 166 235 205 81 71 68 71 71 70 63 36 61 32 91 167 182 188 197 199 191 178 174 169 177 197 216 209 195 206 186 180 189
249 254 262 344 357 323 257 346 19 8 64 69 305 17 79 79 74 70 61 62 62 63 49 67 74 186 214 202 202 190 163 161 170 167 168 179 198 209 192 187 193 187 201 222
252 251 255 38 28 354 354 6 5 12 27 35 47 61 73 76 78 78 58 42 34 33 38 48 41 254 229 198 150 124 128 157 172 177 181 178 171 195 192 178 202 206 208 240
256 269 345 349 354 358 348 343 360 11 23 36 42 64 80 82 85 92 82 5 340 6 75 3 332 301 254 145 131 135 146 165 174 176 179 180 172 195 196 181 214 215 208 222
267 260 288 315 336 342 349 352 1 9 7 360 344 49 92 131 153 153 176 276 312 177 182 287 302 304 344 119 143 155 162 172 182 179 177 158 154 183 171 167 218 217 222 224
267 274 293 308 334 338 340 339 343 351 344 336 332 315 289 236 217 180 112 22 290 236 218 284 298 353 65 116 147 166 162 164 170 145 136 133 109 60 149 173 212 210 223 228
277 299 297 303 319 315 308 312 324 324 318 323 324 306 302 283 201 111 133 265 243 201 185 244 280 33 49 124 159 168 158 150 137 125 138 160 140 78 42 162 177 190 198 212
291 304 300 302 310 307 302 303 304 296 294 300 301 301 291 289 154 143 167 225 224 198 177 196 189 195 188 136 158 180 168 157 149 159 179 193 189 170 161 349 69 181 163 157
310 312 297 302 305 305 297 294 294 297 300 300 314 324 334 319 295 260 227 225 200 154 158 176 182 197 168 157 179 189 164 160 162 184 201 217 219 200 186 185 170 209 164 153
287 282 279 286 288 290 293 290 286 283 290 302 310 299 269 269 264 249 213 173 140 149 156 146 166 190 129 152 169 177 182 185 179 188 205 224 215 192 207 197 160 147 126 124
278 272 270 269 270 273 272 268 267 268 266 268 273 274 270 259 260 229 191 167 176 175 160 158 168 128 113 126 159 180 187 190 188 189 201 205 187 171 195 174 155 143 140 145
262 261 263 266 263 263 265 266 268 270 264 257 262 264 243 219 201 208 209 202 157 144 164 150 142 122 126 171 186 171 161 181 187 186 185 172 162 166 176 159 135 122 128 121
268 271 272 275 279 275 272 275 276 277 278 276 263 248 222 209 216 211 188 177 155 157 152 122 111 122 170 193 170 150 157 170 166 163 155 148 155 159 151 140 122 109 101 110
296 296 290 282 276 274 276 282 287 276 265 261 245 235 228 225 216 184 174 187 186 193 171 117 116 131 151 145 136 146 154 152 144 137 137 145 154 143 131 124 117 114 111 108
296 289 293 294 293 285 283 290 292 284 260 224 225 229 227 212 124 115 139 153 169 168 140 118 128 138 136 122 117 128 142 146 138 130 127 131 133 125 117 116 118 114 109 104
305 299 294 295 300 297 294 289 267 264 298 253 230 224 208 149 112 107 142 168 131 107 123 129 127 118 114 103 117 124 132 134 127 121 125 128 123 116 114 116 115 103 92 87
313 308 307 306 290 291 308 302 294 293 19 21 24 68 81 127 132 120 141 148 133 118 124 129 121 110 109 107 118 123 121 122 118 117 120 122 121 119 116 111 109 101 93 88
303 304 305 311 316 322 332 326 340 61 93 77 25 130 300 289 168 172 180 119 119 123 127 129 123 122 122 122 132 135 129 121 115 114 118 120 121 122 121 113 105 100 95 85
283 289 295 300 295 289 285 322 16 31 60 44 347 192 175 143 84 98 119 128 128 133 132 134 140 146 145 136 133 136 131 122 117 112 112 115 118 115 113 111 106 103 102 97
298 291 286 288 279 260 259 58 51 49 51 48 20 358 334 155 146 130 125 129 131 137 140 151 161 163 155 143 134 128 114 112 115 114 118 122 120 118 113 108 108 121 131 124
323 313 315 302 293 295 208 189 193 173 164 244 330 352 10 83 121 137 138 143 145 144 149 153 161 167 160 146 137 135 132 133 133 126 121 119 122 125 123 124 130 130 127 134
306 317 336 337 358 46 346 284 214 197 187 187 207 355 13 116 129 136 141 141 138 138 140 147 151 154 146 140 137 132 123 117 116 114 117 123 126 128 130 133 133 128 143 165